Regional Weather Roundup
Issued by NWS Nashville, TN

Home | Current Version | Previous Version | Text Only | Print | Product List | Glossary On
Versions: 1 2 3 4 5 6 7 8 9 10 11 12 13 14 15 16 17 18 19 20 21 22 23 24 25 26 27 28 29 30 31 32 33 34 35 36 37 38 39 40 41 42 43 44 45 46 47 48 49 50
000
ASUS44 KOHX 050115
RWROHX
MIDDLE TENNESSEE HOURLY WEATHER ROUNDUP
NATIONAL WEATHER SERVICE NASHVILLE TN
800 PM CDT MON MAY 04 2015

NOTE: "FAIR" INDICATES FEW OR NO CLOUDS BELOW 12,000 FEET WITH
NO SIGNIFICANT WEATHER AND/OR OBSTRUCTIONS TO VISIBILITY.

* THESE REPORTS ARE NOT UNDER NWS QUALITY CONTROL AND MAY NOT
  REPORT WEATHER SUCH AS PRECIPITATION AND FOG.


TNZ005>011-023>034-057-059-062>066-078-080-050200
...NORTHERN MIDDLE TENNESSEE...

CITY           SKY/WX    TMP DP  RH WIND       PRES   REMARKS
CLARKSVILLE    CLEAR     72  55  55 S3        30.17S
CROSSVILLE     CLEAR     70  48  45 CALM      30.27R
LIVINGSTON     CLEAR     71  50  47 CALM      30.24
NASHVILLE      PTCLDY    74  54  49 S3        30.20R
PORTLAND       CLEAR     72  54  53 S3        30.19S
ROCKWOOD       CLEAR     68  49  50 SW6       30.25S
SMYRNA         CLEAR     72  55  54 CALM      30.21R
SPARTA         CLEAR     63  55  77 CALM      30.22S
$$
TNZ056-058-060-061-075>077-079-093>097-050200
...SOUTHERN MIDDLE TENNESSEE...

CITY           SKY/WX    TMP DP  RH WIND       PRES   REMARKS
COLUMBIA       CLEAR     72  55  56 SE3       30.19S
LEWISBURG      CLEAR     70  53  54 CALM      30.21R
MCMINNVILLE    PTCLDY    72  55  56 CALM      30.23S
SHELBYVILLE    CLEAR     73  55  53 CALM      30.23R
TULLAHOMA      CLEAR     68  52  56 CALM      30.25R
WINCHESTER     CLEAR     68  55  64 CALM      30.24R
$$


...KEY TO REMARKS...
VSB - VISIBILITY IN MILES
WCI - WIND CHILL INDEX
HX  - HEAT INDEX




USA.gov is the U.S. government's official web portal to all federal, state and local government web resources and services.